Flag for Denmark Weather past 2 weeks in Aalborg, Denmark

48 °F

Partly sunny.

Feels Like: 42 °F
Forecast: 41 / 50 °F
Wind: 18 mph from Southwest

Location: Aalborg Airport

Current Time: Nov 27, 2015 at 11:21:27 AM

Latest Report: Nov 27, 2015 at 10:50 AM

Visibility: N/A

Pressure: 29.68 "Hg

Humidity: 100%

Dew point: 48 °F

Location of AalborgLocation

Historic Weather in Aalborg — Graph


Aalborg temperature yesterday

Maximum temperature yesterday: 43 °F (at 1:20 PM)
Minimum temperature yesterday: 30 °F (at 7:50 AM)
Average temperature yesterday: 37 °F

Past Weeks' High & Low Weather Summary

High55 °F (Nov 12, 11:50 AM)100% (Nov 16, 8:50 AM)30.07 "Hg (Nov 16, 8:50 AM)
Low23 °F (Nov 23, 3:01 AM)70% (Nov 21, 1:50 PM)29.15 "Hg (Nov 18, 1:20 AM)
Average42 °F89%29.60 "Hg
* Reported Nov 12 10:20 AM — Nov 27 10:20 AM, Aalborg, Weather by CustomWeather, © 2015

Note: Actual official high and low records may vary slightly from our data, if they occured in-between our weather recording intervals... More about our weather records


Aalborg weather history for previous 24 hours

Time TempWeatherWind HumidityBarometerVisibility
10:20 AM
Fri, Nov 27
50 °FDrizzle. Partly sunny.18 mph94%29.68 "Hg4 mi
9:50 AM48 °FDrizzle. Partly sunny.20 mph94%29.71 "Hg5 mi
9:20 AM48 °FPartly sunny.22 mph94%29.71 "HgN/A
8:50 AM48 °FPartly sunny.17 mph94%29.71 "HgN/A
7:50 AM48 °FPartly cloudy.18 mph94%29.74 "Hg4 mi
7:20 AM48 °FPartly cloudy.18 mph87%29.74 "HgN/A
6:50 AM48 °FPartly cloudy.18 mph87%29.74 "HgN/A
6:20 AM46 °FPartly cloudy.18 mph93%29.77 "HgN/A
5:50 AM46 °FPartly cloudy.17 mph93%29.77 "HgN/A
4:50 AM46 °FPartly cloudy.18 mph93%29.80 "HgN/A
4:20 AM46 °FPartly cloudy.18 mph93%29.80 "HgN/A
3:50 AM46 °FPartly cloudy.17 mph87%29.80 "HgN/A
3:20 AM46 °FPartly cloudy.17 mph87%29.80 "HgN/A
2:50 AM46 °FPartly cloudy.18 mph87%29.83 "HgN/A
2:20 AM45 °FPartly cloudy.18 mph93%29.83 "HgN/A
1:50 AM45 °FPartly cloudy.17 mph93%29.83 "HgN/A
1:20 AM43 °FPartly cloudy.15 mph93%29.83 "HgN/A
12:50 AM43 °FPartly cloudy.15 mph93%29.86 "HgN/A
12:20 AM43 °FPartly cloudy.14 mph93%29.86 "HgN/A
11:50 PM
Thu, Nov 26
43 °FPartly cloudy.17 mph93%29.86 "HgN/A
11:20 PM43 °FPartly cloudy.15 mph87%29.89 "HgN/A
10:50 PM41 °FPartly cloudy.16 mph87%29.89 "HgN/A
10:20 PM41 °FPartly cloudy.14 mph87%29.89 "HgN/A
9:50 PM41 °FPassing clouds.14 mph87%29.89 "HgN/A
9:20 PM39 °FPassing clouds.10 mph87%29.89 "HgN/A
8:50 PM39 °FPassing clouds.9 mph87%29.92 "HgN/A
8:20 PM37 °FClear.6 mph93%29.92 "Hg10 mi
7:50 PM39 °FClear.9 mph87%29.92 "Hg10 mi
7:20 PM39 °FClear.9 mph87%29.92 "Hg10 mi
6:50 PM39 °FClear.10 mph87%29.92 "Hg10 mi
6:20 PM39 °FPassing clouds.10 mph87%29.92 "HgN/A
5:50 PM37 °FPassing clouds.7 mph93%29.92 "HgN/A
5:20 PM37 °FPassing clouds.8 mph93%29.92 "HgN/A
4:50 PM37 °FPassing clouds.8 mph87%29.92 "HgN/A
4:20 PM37 °FClear.7 mph93%29.89 "Hg10 mi
3:50 PM37 °FPassing clouds.6 mph87%29.89 "HgN/A
3:20 PM39 °FSunny.8 mph87%29.89 "Hg10 mi
2:50 PM41 °FSunny.8 mph87%29.89 "Hg10 mi
2:20 PM41 °FSunny.7 mph87%29.89 "Hg10 mi
1:50 PM43 °FSunny.6 mph81%29.89 "Hg10 mi
1:20 PM43 °FSunny.6 mph87%29.89 "Hg10 mi
12:50 PM41 °FSunny.7 mph87%29.89 "Hg10 mi
12:20 PM41 °FSunny.5 mph87%29.86 "Hg10 mi
11:50 AM39 °FSunny.7 mph93%29.86 "Hg10 mi
11:20 AM37 °FSunny.3 mph100%29.86 "Hg10 mi
Weather by CustomWeather, © 2015

See weather overviewHow to use our weather pages